Location: Casilda
(33.0440°S, 61.1680°W)
Time: 04:20:14
(UTC-03:00)

ISS - Pass Details

Date: 17 September 2017
Orbit: 401 x 407 km, 51.6° (Epoch: 23 September)

Event Time Altitude Azimuth Distance (km) Brightness Sun altitude
Rises 19:34:41 0° 238° (WSW) 2,339 1.2 -8.5°
Reaches altitude 10° 19:36:58 10° 251° (WSW) 1,472 0.4 -9.0°
Maximum altitude 19:39:47 26° 309° (NW) 838 -1.7 -9.6°
Drops below altitude 10° 19:42:35 10° 8° (N) 1,456 -1.1 -10.2°
Sets 19:44:50 0° 21° (NNE) 2,308 -0.3 -10.6°
